Location: Unspecified
(41.5000°N, 0.0000°E)
Time: 01:29:22
(UTC+00:00)

Vanguard 1 - Pass Details

Date: 27 June 2019
Orbit: 653 x 3830 km, 34.3° (Epoch: 14 October)

Event Time Altitude Azimuth Distance (km) Brightness Sun altitude
Rises 22:14:58 0° 201° (SSW) 7,694 14.2 -20.5°
Reaches altitude 10° 22:21:20 10° 191° (SSW) 6,860 13.9 -21.0°
Enters shadow 22:23:09 13° 188° (S) 6,635 13.8 -21.2°
Exits shadow 22:34:13 27° 160° (SSE) 5,519 13.2 -22.0°
Maximum altitude 22:39:12 29° 141° (SE) 5,249 13.2 -22.3°
Drops below altitude 10° 22:54:11 10° 91° (E) 5,828 13.8 -23.3°
Sets 22:58:50 0° 81° (E) 6,432 14.2 -23.5°
